This is the latest recevied weather packets stored in our database for station/object W3AJR. If no packets are shown the sender has not sent any weather packets the latest 10 day(s).
| Time | Temp. | Humidity | Pressure | Rain* | Wind** | Luminosity | Snow |
|---|---|---|---|---|---|---|---|
| 1777570403 | 20° C | 40% | 1008.3 hPa | 0 mm | - | 191 W/m² | - |
| 1777570098 | 20° C | 42% | 1008.4 hPa | 0 mm | - | 829 W/m² | - |
| 1777569795 | 20° C | 42% | 1008.3 hPa | 0 mm | - | 798 W/m² | - |
| 1777569491 | 20.56° C | 40% | 1008.3 hPa | 0 mm | - | 752 W/m² | - |
| 1777569188 | 20° C | 41% | 1008.4 hPa | 0 mm | - | 656 W/m² | - |
| 1777568883 | 19.44° C | 45% | 1008.5 hPa | 0 mm | - | 544 W/m² | - |
| 1777568581 | 19.44° C | 47% | 1008.5 hPa | 0 mm | - | 218 W/m² | - |
| 1777568278 | 18.89° C | 46% | 1008.4 hPa | 0 mm | - | 814 W/m² | - |
| 1777567974 | 18.33° C | 48% | 1008.6 hPa | 0 mm | - | 829 W/m² | - |
| 1777567670 | 18.33° C | 45% | 1008.5 hPa | 0 mm | - | 186 W/m² | - |
| 1777567368 | 18.33° C | 46% | 1008.4 hPa | 0 mm | - | 250 W/m² | - |
| 1777567066 | 18.33° C | 48% | 1008.6 hPa | 0 mm | - | 295 W/m² | - |
| 1777566764 | 18.89° C | 46% | 1008.9 hPa | 0 mm | - | 192 W/m² | - |
| 1777566461 | 19.44° C | 48% | 1008.8 hPa | 0 mm | - | 171 W/m² | - |
| 1777566159 | 19.44° C | 47% | 1008.7 hPa | 0 mm | - | 932 W/m² | - |
| 1777565853 | 18.89° C | 45% | 1008.9 hPa | 0 mm | - | 889 W/m² | - |
| 1777565550 | 19.44° C | 46% | 1008.9 hPa | 0 mm | - | 853 W/m² | - |
| 1777565247 | 19.44° C | 45% | 1008.8 hPa | 0 mm | - | 208 W/m² | - |
| 1777564943 | 18.89° C | 48% | 1009 hPa | 0 mm | - | 893 W/m² | - |
| 1777564638 | 18.89° C | 49% | 1008.8 hPa | 0 mm | - | 847 W/m² | - |
| 1777564334 | 18.89° C | 46% | 1008.9 hPa | 0 mm | - | 840 W/m² | - |
| 1777564030 | 18.33° C | 47% | 1008.9 hPa | 0 mm | - | 853 W/m² | - |
| 1777563726 | 18.33° C | 48% | 1009.2 hPa | 0 mm | - | 866 W/m² | - |
| 1777563422 | 17.78° C | 52% | 1009.1 hPa | 0 mm | - | 913 W/m² | - |
| 1777563117 | 17.78° C | 50% | 1009.3 hPa | 0 mm | - | 130 W/m² | - |
* Rain latest hour (hover to see other rain measurements)
** Current wind speed in m/s (hover to see current wind gust speed)